Location: Asheville, NC
(35.6000°N, 82.5500°W)
Time: 14:00:02
(UTC-04:00)

Envisat - Pass Details

Date: 10 March 2018
Orbit: 764 x 766 km, 98.2° (Epoch: 19 June)

Event Time Altitude Azimuth Distance (km) Brightness Sun altitude
Rises 19:59:54 0° 166° (SSE) 3,211 6.0 -18.3°
Reaches altitude 10° 20:02:11 10° 166° (SSE) 2,289 5.2 -18.8°
Maximum altitude 20:07:15 90° 238° (WSW) 768 2.9 -19.8°
Drops below altitude 10° 20:12:20 10° 348° (NNW) 2,303 5.7 -20.8°
Sets 20:14:39 0° 348° (NNW) 3,233 6.5 -21.3°
